Weather in Nytva

Russia / Perm Krai     57°56′20″N   55°19′43″E
temp.,
°C
wind,
m/s
gust,
m/s
humid.,
%
clouds,
%
prec.,
mm/h
press.,
hPa
HPBL,
m
3 march, wed
wed323:00−6ssw51195100 0.8 994332
02:00−5ssw3696100 0.6 994160
05:00−7w239793 0.8 99552
08:00−10w35965 0.0 99595
11:00−6w369340 0.0 996283
14:00−2w359091 0.0 996536
17:00−2w359393 0.2 997464
20:00−5w229699 0.2 99730
4 march, thu
thu423:00−6nnw4894100 0.8 997453
02:00−9w379598 0.1 996222
05:00−12wsw379588 0.1 997139
08:00−14sw369786 0.0 996125
11:00−9sw479491 0.3 996389
14:00−6ssw4793100 0.3 995500
17:00−5ssw4891100 0.6 993598
20:00−6s3996100 0.3 991434
5 march, fri
fri523:00−7se2397100 0.6 99176
02:00−8sw0198100 0.3 99221
05:00−8nw1296100 0.6 99525
08:00−10wnw249692 0.1 997118
11:00−9nw249191 0.1 999253
14:00−6wnw228798 0.1 1000506
17:00−6wnw238799 0.3 1001463
20:00−11wnw249495 0.1 100270
6 march, sat
sat623:00−14nw359586 0.2 1004101
02:00−18wnw23970 0.0 100631
05:00−20w23983 0.0 100829
08:00−18w369582 0.0 1010198
11:00−15w359071 0.0 1010293
14:00−11wsw24820 0.0 1009472
17:00−9ssw368840 0.1 1008677
20:00−13ssw389693 0.1 1007215
7 march, sun
sun723:00−13sw369690 0.3 1008188
02:00−15wnw2397100 0.1 100774
05:00−21wnw239797 0.2 100827
08:00−24w12970 0.0 100920
11:00−18sw24910 0.0 1009247
14:00−13sw478862 0.1 1009665
17:00−12ssw478781 0.2 1008822
20:00−14ssw41094100 0.1 1008327